TimeEST,TemperatureF,Dew PointF,Humidity,Sea Level PressureIn,VisibilityMPH,Wind Direction,Wind SpeedMPH,Gust SpeedMPH,PrecipitationIn,Events,Conditions,WindDirDegrees,DateUTC
12:15 AM,32.4,26.6,79,30.03,10.0,Calm,Calm,-,N/A,,Clear,0,2014-02-22 05:15:00
12:35 AM,32.0,26.8,81,30.03,10.0,Calm,Calm,-,N/A,,Clear,0,2014-02-22 05:35:00
12:55 AM,35.1,27.7,74,30.04,10.0,Calm,Calm,-,N/A,,Clear,0,2014-02-22 05:55:00
1:15 AM,31.1,27.1,85,30.05,10.0,Calm,Calm,-,N/A,,Clear,0,2014-02-22 06:15:00
1:35 AM,30.9,27.5,87,30.06,10.0,Calm,Calm,-,N/A,,Clear,0,2014-02-22 06:35:00
1:55 AM,30.2,27.3,89,30.07,10.0,Calm,Calm,-,N/A,,Clear,0,2014-02-22 06:55:00
2:15 AM,30.7,27.7,88,30.08,10.0,Calm,Calm,-,N/A,,Clear,0,2014-02-22 07:15:00
2:35 AM,31.8,28.2,87,30.08,10.0,Calm,Calm,-,N/A,,Clear,0,2014-02-22 07:35:00
2:55 AM,32.0,28.9,88,30.09,10.0,Calm,Calm,-,N/A,,Clear,0,2014-02-22 07:55:00
3:15 AM,32.0,29.3,90,30.08,10.0,Calm,Calm,-,N/A,,Clear,0,2014-02-22 08:15:00
3:35 AM,31.6,29.7,92,30.09,10.0,Calm,Calm,-,N/A,,Clear,0,2014-02-22 08:35:00
3:55 AM,32.0,30.0,92,30.09,10.0,Calm,Calm,-,N/A,,Clear,0,2014-02-22 08:55:00
4:15 AM,32.0,30.2,93,30.09,10.0,Calm,Calm,-,N/A,,Clear,0,2014-02-22 09:15:00
4:35 AM,32.4,30.0,91,30.10,10.0,Calm,Calm,-,N/A,,Clear,0,2014-02-22 09:35:00
4:55 AM,31.8,30.2,94,30.11,10.0,Calm,Calm,-,N/A,,Clear,0,2014-02-22 09:55:00
5:15 AM,32.4,30.4,92,30.11,10.0,Calm,Calm,-,N/A,,Clear,0,2014-02-22 10:15:00
5:35 AM,32.0,30.0,92,30.12,10.0,Calm,Calm,-,N/A,,Clear,0,2014-02-22 10:35:00
5:55 AM,30.4,27.7,90,30.13,10.0,Calm,Calm,-,N/A,,Clear,0,2014-02-22 10:55:00
6:15 AM,29.8,28.4,94,30.14,10.0,Calm,Calm,-,N/A,,Clear,0,2014-02-22 11:15:00
6:35 AM,29.7,28.4,95,30.14,10.0,Calm,Calm,-,N/A,,Clear,0,2014-02-22 11:35:00
6:55 AM,29.5,28.4,96,30.15,10.0,Calm,Calm,-,N/A,,Clear,0,2014-02-22 11:55:00
7:15 AM,30.2,29.1,96,30.16,10.0,Calm,Calm,-,N/A,,Clear,0,2014-02-22 12:15:00
7:35 AM,30.9,30.0,96,30.16,10.0,Calm,Calm,-,N/A,,Clear,0,2014-02-22 12:35:00
7:55 AM,32.2,31.8,99,30.17,10.0,Calm,Calm,-,N/A,,Clear,0,2014-02-22 12:55:00
8:15 AM,34.0,32.2,93,30.17,10.0,Calm,Calm,-,N/A,,Clear,0,2014-02-22 13:15:00
8:35 AM,36.0,32.2,86,30.18,10.0,Calm,Calm,-,N/A,,Clear,0,2014-02-22 13:35:00
8:55 AM,37.2,32.0,81,30.18,10.0,Calm,Calm,-,N/A,,Clear,0,2014-02-22 13:55:00
9:15 AM,39.6,32.9,77,30.19,10.0,Calm,Calm,-,N/A,,Clear,0,2014-02-22 14:15:00
9:35 AM,43.0,32.0,65,30.19,10.0,Calm,Calm,-,N/A,,Clear,0,2014-02-22 14:35:00
9:55 AM,46.4,32.5,59,30.20,10.0,Calm,Calm,-,N/A,,Clear,0,2014-02-22 14:55:00
10:15 AM,47.7,32.9,57,30.19,10.0,Calm,Calm,-,N/A,,Clear,0,2014-02-22 15:15:00
10:35 AM,49.5,33.3,54,30.19,10.0,Calm,Calm,-,N/A,,Clear,0,2014-02-22 15:35:00
10:55 AM,51.6,32.4,48,30.19,10.0,Calm,Calm,-,N/A,,Clear,0,2014-02-22 15:55:00
11:15 AM,54.5,27.9,36,30.19,10.0,South,3.5,-,N/A,,Clear,190,2014-02-22 16:15:00
11:35 AM,55.6,26.4,33,30.18,10.0,SSW,4.6,-,N/A,,Clear,200,2014-02-22 16:35:00
11:55 AM,56.3,25.2,30,30.17,10.0,South,4.6,-,N/A,,Clear,190,2014-02-22 16:55:00
12:15 PM,57.6,25.5,29,30.16,10.0,SSW,6.9,-,N/A,,Clear,200,2014-02-22 17:15:00
12:35 PM,58.8,24.4,27,30.15,10.0,SW,4.6,-,N/A,,Clear,220,2014-02-22 17:35:00
12:55 PM,60.3,23.9,25,30.14,10.0,South,6.9,-,N/A,,Clear,190,2014-02-22 17:55:00
1:15 PM,61.3,23.4,23,30.13,10.0,WNW,4.6,-,N/A,,Clear,290,2014-02-22 18:15:00
1:35 PM,61.7,22.5,22,30.11,10.0,Calm,Calm,-,N/A,,Clear,0,2014-02-22 18:35:00
1:55 PM,61.5,21.4,21,30.10,10.0,Calm,Calm,-,N/A,,Clear,0,2014-02-22 18:55:00
2:15 PM,62.1,21.2,21,30.10,10.0,SW,4.6,-,N/A,,Clear,230,2014-02-22 19:15:00
2:35 PM,63.1,23.4,22,30.09,10.0,South,10.4,-,N/A,,Clear,190,2014-02-22 19:35:00
2:55 PM,63.7,23.2,21,30.08,10.0,South,5.8,-,N/A,,Clear,190,2014-02-22 19:55:00
3:15 PM,63.9,23.0,21,30.08,10.0,South,6.9,-,N/A,,Clear,180,2014-02-22 20:15:00
3:35 PM,63.5,20.8,20,30.08,10.0,South,8.1,-,N/A,,Clear,190,2014-02-22 20:35:00
3:55 PM,63.3,20.5,19,30.07,10.0,South,8.1,-,N/A,,Clear,180,2014-02-22 20:55:00
4:15 PM,63.5,21.2,20,30.07,10.0,SSW,8.1,-,N/A,,Clear,200,2014-02-22 21:15:00
4:35 PM,63.5,21.0,20,30.07,10.0,South,6.9,-,N/A,,Clear,180,2014-02-22 21:35:00
4:55 PM,63.0,20.7,20,30.07,10.0,SW,5.8,-,N/A,,Clear,220,2014-02-22 21:55:00
5:15 PM,62.4,19.8,19,30.07,10.0,SW,5.8,-,N/A,,Clear,230,2014-02-22 22:15:00
5:35 PM,61.3,21.2,21,30.07,10.0,South,4.6,-,N/A,,Clear,190,2014-02-22 22:35:00
5:55 PM,59.7,22.5,24,30.07,10.0,South,3.5,-,N/A,,Clear,190,2014-02-22 22:55:00
6:15 PM,54.0,25.2,33,30.07,10.0,Calm,Calm,-,N/A,,Clear,0,2014-02-22 23:15:00
6:35 PM,47.5,26.4,44,30.08,10.0,Calm,Calm,-,N/A,,Clear,0,2014-02-22 23:35:00
6:55 PM,45.9,23.2,41,30.08,10.0,Calm,Calm,-,N/A,,Clear,0,2014-02-22 23:55:00
7:15 PM,43.9,26.4,50,30.08,10.0,Calm,Calm,-,N/A,,Clear,0,2014-02-23 00:15:00
7:35 PM,43.2,28.0,55,30.09,7.0,Calm,Calm,-,N/A,,Clear,0,2014-02-23 00:35:00
7:55 PM,42.1,26.8,55,30.09,10.0,Calm,Calm,-,N/A,,Clear,0,2014-02-23 00:55:00
8:15 PM,40.5,28.0,61,30.10,10.0,Calm,Calm,-,N/A,,Clear,0,2014-02-23 01:15:00
8:35 PM,39.2,28.4,65,30.10,10.0,Calm,Calm,-,N/A,,Clear,0,2014-02-23 01:35:00
8:55 PM,38.5,27.1,64,30.10,10.0,Calm,Calm,-,N/A,,Clear,0,2014-02-23 01:55:00
9:15 PM,38.8,27.9,65,30.10,10.0,Calm,Calm,-,N/A,,Clear,0,2014-02-23 02:15:00
9:35 PM,37.8,27.9,67,30.11,10.0,Calm,Calm,-,N/A,,Clear,0,2014-02-23 02:35:00
9:55 PM,36.0,27.5,71,30.11,10.0,Calm,Calm,-,N/A,,Clear,0,2014-02-23 02:55:00
10:15 PM,36.5,26.2,66,30.11,10.0,Calm,Calm,-,N/A,,Clear,0,2014-02-23 03:15:00
10:35 PM,37.9,28.0,68,30.11,10.0,Calm,Calm,-,N/A,,Clear,0,2014-02-23 03:35:00
10:55 PM,37.8,27.7,67,30.11,10.0,Calm,Calm,-,N/A,,Clear,0,2014-02-23 03:55:00
11:15 PM,36.9,27.0,67,30.10,10.0,Calm,Calm,-,N/A,,Clear,0,2014-02-23 04:15:00
11:35 PM,37.8,26.2,63,30.10,10.0,WSW,3.5,-,N/A,,Clear,250,2014-02-23 04:35:00
11:55 PM,39.6,26.6,60,30.10,10.0,Calm,Calm,-,N/A,,Clear,0,2014-02-23 04:55:00